Find Starlink 11249

NORAD ID: 60728 Int'l Des: 2024-152 Owner: SPXS Country: US Constellation: starlink operational
LEOCIRCULAR

Current View

Loading 3D Globe...

About Starlink 11249

Starlink 11249 (NORAD 60728) is a starlink constellation satellite (v2 mini d2c) launched Aug 28, 2024 by SPXS of US. It operates in LEO, CIRCULAR orbit with a mass of 960.00 kg.

About Starlink 11249

Description loading...

Upcoming Passes

Passes for default location (London). Set your location on the main map for personalized predictions.

Altitude History

Loading altitude history...

Two-Line Element Set

1 60728U 24152J 26172.70448929 .00003665 00000-0 35111-4 0 9993
2 60728 53.1594 323.3589 0000834 47.4192 312.6896 15.69693775105174
Epoch: Jun 21, 2026 • Age: 39 hours

Current Status

Altitude 361.8 km
Velocity 7.70 km/s
Sub-Earth Point 32.66°N, 79.97°E
Launch Date Aug 28, 2024
Age 1.8 years
Type internet

Technical Details

Classification Payload
Mass 960.00 kg
Dry Mass 910.00 kg
Total Mass 960.00 kg
Length 0.30 m
Diameter 4.10 m
Span 29.00 m
Shape Box + pan
Manufacturer SPXS
Bus Type Starlink V2MD
Phase Status In Orbit
Owner/State SPXS/US

Most Searched